www.pogodaiklimat.ru

Погода и климат >> Архив погоды >> Иран >> Ahwaz


ПОГОДА в Ahwaz

  • Прогноз погоды в Ahwaz
  • Монитор погоды в Ahwaz
  • Климат города

АРХИВ ПОГОДЫ в Ahwaz

Время (UTC), дата Ветер
(напр.,м/с)
 
Видим.   Явления Облачность Т
(С)
Тd
(С)
f
(%)
Тe
(С)
Тes
(С)
Комфортность P
(гПа)
Po
(гПа)
Тmin
(С)
Tmax
(С)
R
(мм)
R24
(мм)
S
(см)
09 13.06 СЗ 2 10 км ясно +42.1 +4.2 10 +39 +61 опасность
солнечного
удара
997.7 995.3
12 13.06 С 4 10 км ясно +43.7 +2.2 8 +40 +48 очень
жарко
995.9 993.5
15 13.06 СЗ 2 10 км ясно +42.3 +1.2 8 +39 +39 очень
жарко
995.6 993.2 +44.0
18 13.06 СЗ 2 10 км ясно +38.0 +3.7 12 +35 +35 очень
жарко
996.8 994.4
21 13.06 штиль 0 10 км ясно +31.2 +7.6 23 +30 +30 жарко 996.8 994.4
00 14.06 В 1 10 км ясно +29.2 +8.9 28 +29 +29 жарко 996.8 994.4
03 14.06 З 1 7000 м мгла ясно +32.2 +10.8 27 +32 +34 жарко 998.3 995.9 +27.8
06 14.06 В 2 7000 м мгла ясно +38.6 +10.1 18 +37 +51 опасность
солнечного
удара
999.6 997.2
09 14.06 З 4 10 км ясно +43.6 +6.7 11 +41 +56 опасность
перегрева
999.6 997.2
12 14.06 ЮЗ 4 10 км 1/1 1200 м
[Cu hum]
+44.6 +2.8 8 +41 +48 опасность
перегрева
998.4 996.0
15 14.06 З 4 10 км ясно +41.8 +5.3 11 +39 +39 очень
жарко
998.8 996.4 +44.9
18 14.06 СЗ 3 10 км ясно +38.1 +6.0 14 +35 +35 очень
жарко
1000.0 997.6
21 14.06 СЗ 3 6000 м пыль ясно +36.2 +7.3 17 +34 +34 очень
жарко
1000.3 997.9
00 15.06 С 2 7000 м пыль ясно +31.6 +8.6 24 +31 +31 жарко 1000.1 997.7
03 15.06 С 2 7000 м мгла ясно +32.9 +9.0 23 +32 +33 жарко 1000.1 997.7 +30.6
06 15.06 С 3 7000 м мгла ясно +39.3 +9.8 17 +38 +49 очень
жарко
1000.9 998.5
09 15.06 СЗ 4 8000 м мгла ясно +42.4 +5.8 11 +40 +54 опасность
солнечного
удара
1000.5 998.1
12 15.06 З 7 8000 м мгла ясно +42.6 +3.1 9 +39 +43 очень
жарко
999.5 997.1
15 15.06 СЗ 5 8000 м мгла ясно +41.0 +6.0 12 +38 +39 очень
жарко
999.0 996.6 +43.3
18 15.06 З 6 10 км ясно +37.3 +6.3 15 +35 +35 очень
жарко
1000.7 998.3
21 15.06 СЗ 5 10 км ясно +34.4 +8.2 20 +33 +33 жарко 1000.6 998.4
00 16.06 З 3 10 км ясно +31.3 +8.3 24 +30 +30 жарко 1000.1 997.7
03 16.06 З 2 10 км ясно +30.2 +9.7 28 +30 +31 жарко 1000.6 998.2 +29.6
06 16.06 СЗ 4 10 км ясно +37.8 +10.2 19 +37 +46 очень
жарко
1001.0 998.6
09 16.06 СЗ 5 10 км ясно +42.4 +2.9 9 +39 +51 опасность
солнечного
удара
1000.0 997.6
12 16.06 З 6 10 км ясно +43.3 +0.1 7 +40 +44 очень
жарко
998.9 996.5
15 16.06 З 6 10 км ясно +40.9 +1.8 9 +37 +38 очень
жарко
998.9 996.5 +43.9
18 16.06 З 5 10 км ясно +37.3 +6.3 15 +35 +35 очень
жарко
999.8 997.4
21 16.06 З 5 10 км ясно +34.3 +8.9 21 +33 +33 жарко 999.4 997.0
00 17.06 СЗ 3 10 км ясно +32.3 +7.2 21 +31 +31 жарко 998.6 996.2
03 17.06 СЗ 3 7000 м мгла ясно +31.0 +6.8 22 +30 +31 жарко 998.9 996.4 +30.8
06 17.06 СЗ 4 10 км ясно +38.3 +7.1 15 +36 +45 очень
жарко
999.2 996.8
09 17.06 СЗ 4 10 км ясно +43.3 +3.6 9 +40 +55 опасность
солнечного
удара
997.8 995.4
12 17.06 С 4 10 км ясно +45.5 +1.7 7 +42 +50 опасность
перегрева
996.3 993.9
15 17.06 СЗ 3 5000 м пыль ясно +44.9 +3.1 8 +42 +42 опасность
перегрева
995.4 993.0 +46.2
18 17.06 СЗ 6 2000 м пыль ясно +40.6 +3.1 10 +37 +37 очень
жарко
996.7 994.3
21 17.06 СЗ 5 3000 м пыль ясно +37.4 +4.4 13 +34 +34 очень
жарко
996.6 994.2
00 18.06 СЗ 4 6000 м пыль ясно +34.7 +4.3 15 +32 +32 жарко 996.1 993.7
03 18.06 СЗ 4 10 км ясно +36.8 +3.9 13 +34 +35 очень
жарко
996.9 994.6 +34.7
06 18.06 С 6 6000 м пыль ясно +42.5 +3.0 9 +39 +45 очень
жарко
997.8 995.4
09 18.06 СЗ 7 6000 м пыль ясно +44.9 +1.2 7 +41 +47 опасность
перегрева
997.0 994.6
12 18.06 СЗ 7 5000 м пыль ясно +46.1 0.0 6 +42 +46 опасность
перегрева
996.3 993.9
15 18.06 СЗ 7 4000 м пыль ясно +43.4 +2.0 8 +40 +40 очень
жарко
996.8 994.4 +46.5
18 18.06 СЗ 4 8000 м пыль ясно +38.7 +4.2 12 +36 +36 очень
жарко
998.1 995.7
21 18.06 СЗ 5 10 км ясно +35.6 +4.0 14 +33 +33 жарко 998.1 995.7
00 19.06 СЗ 6 6000 м пыль ясно +33.7 +6.1 18 +32 +32 жарко 998.8 996.4
03 19.06 СЗ 4 10 км ясно +33.7 +5.3 17 +31 +32 жарко 1000.2 997.8 +33.4
06 19.06 СЗ 5 10 км ясно +40.8 +1.8 9 +37 +45 очень
жарко
1001.4 999.0
09 19.06 СЗ 8 3000 м пыльный позёмок ясно +44.1 -3.9 5 +40 +44 очень
жарко
1000.8 998.4
12 19.06 СЗ 7 3000 м пыльный позёмок ясно +44.8 -1.0 6 +41 +44 опасность
перегрева
1000.1 997.7
15 19.06 СЗ 6 3000 м пыльный позёмок ясно +42.1 +2.7 9 +39 +39 очень
жарко
999.9 997.5 +45.0
18 19.06 З 5 10 км ясно +37.5 +5.5 14 +35 +35 очень
жарко
1001.1 998.7
21 19.06 З 5 10 км ясно +34.4 +6.7 18 +32 +32 жарко 998.7
00 20.06 СЗ 7 10 км ясно +32.6 +7.5 21 +31 +31 жарко 1000.8 998.4
03 20.06 СЗ 2 10 км ясно +30.4 +8.2 25 +30 +31 жарко 1001.6 999.2 +30.2
06 20.06 СЗ 5 10 км ясно +38.7 +5.4 13 +36 +43 очень
жарко
1001.6 999.2

 

Местоположение метеостанции Ahwaz (Иран): широта 31.33 долгота 48.67 высота над уровнем моря 22 м.

В архиве по умолчанию представлена погода в Ahwaz за последнюю неделю. Архивные данные за месяц целиком и за предыдущие месяцы, начиная с января 2011 года, Вы можете получить, выбрав интересующий диапазон дат из раскрывающегося списка и нажав кнопку "Ввод!".


*Определитесь, кто Вы:
робот инопланетянин человек

Внимание! Время в таблицах - всемирное. Для получения местного времени необходимо прибавить поправку, которая в Ahwaz равна 3.5 ч.

Смотрите также архив погоды в соседних городах и на ближайших метеорологических станциях:

Погода в Masjed-Soleyman (Иран) (92 км)
Погода в Safi-Abad Dezful (Иран) (107 км)
Погода в Omidieh (Иран) (114 км)
Погода в Abadan (Иран) (114 км)
Погода в Basrah (Ирак) (120 км)
Погода в Basrah Airport (Ирак) (124 км)
Погода в Fao (Ирак) (151 км)
Погода в Amarah (Ирак) (153 км)
Погода в Abdaly (Кувейт) (167 км)
Погода в Bubiyan (Кувейт) (176 км)

Пояснения к столбцам:

Ветер - указаны скорость ветра в м/с - средняя за 10 мин, порывы в срок и между сроками (в фигурных скобках) и направление, откуда дует ветер: С - северный, СВ - северо-восточный, В - восточный, ЮВ - юго-восточный, Ю - южный, ЮЗ - юго-западный, З - западный, СЗ - северо-западный.
Видимость - горизонтальная дальность видимости в метрах или километрах. При видимости от 1 до 10 км при отсутствии осадков обычно наблюдается дымка, при ухудшении видимости до 1 км и менее - туман. В сухую погоду видимость может ухудшаться дымом, пылью или мглою.
Явления - указаны атмосферные явления, наблюдавшиеся в срок или в последний час перед сроком; фигурными скобками обозначены явления, наблюдавшиеся между сроками (за 1-3 часа до срока); квадратными скобками обозначены град или гололедные отложения с указанием их диаметра в мм.
Облачность - указаны через наклонную черту общая и нижняя облачность в баллах и высота нижней границы облаков в метрах; квадратными скобками обозначены формы облаков: Ci - перистые, Cs - перисто-слоистые, Cc - перисто-кучевые, Ac - высококучевые, As - высокослоистые, Sc - слоисто-кучевые, Ns - слоисто-дождевые, Cu - кучевые, Cb - кучево-дождевые. Подробнее классификацию облаков см. в Атласе облаков (PDF).
T - Температура воздуха - температура, измеренная на высоте 2 м над землей.
Td - Температура точки росы - температура, при понижении до которой содержащийся в воздухе водяной пар достигнет насыщения.
f - Относительная влажность воздуха - влажноcть воздуха, измеренная на высоте 2 м над землей.
Te - Эффективная температура - температура, которую ощущает одетый по сезону человек в тени. Характеристика душности погоды. При расчете учитывается влияние влажности воздуха и скорости ветра на теплоощущения человека.
Tes - Эффективная температура на солнце - температура, которую ощущает человек, с поправкой на солнечный нагрев. Характеристика знойности погоды. Зависит от высоты солнца над горизонтом, облачности и скорости ветра. Ночью, в пасмурную погоду, а также при ветре 12 м/с и более поправка равна нулю.
P - Атмосферное давление - приведенное к уровню моря атмосферное давление.
Po - Атмосферное давление - измеренное на уровне метеостанции атмосферное давление.
Tmin - Минимальная температура - минимум температуры воздуха на высоте 2 м над землей.
Tmax - Максимальная температура - максимум температуры воздуха на высоте 2 м над землей.
R - Количество осадков - Количество выпавших осадков за период времени, мм. При наведении курсора мыши на число - период времени, за который выпало указанное количество осадков.
R24 - Количество осадков - Количество выпавших осадков за 24 часа, мм.
S - Снежный покров - Высота снежного покрова, см. При наведении курсора мыши на число - состояние снежного покрова и степень покрытия местности в баллах.